Wind_Speed
25 26 25 21 18 20 20 20 17 15 17 12 12 7 11 8 6 6 4 4 5 6 6 7 6 4 1 5 8 9 6 5 4 6 5 3 3 3 5 9 12 16 19
28 30 29 25 22 19 19 18 16 13 14 13 10 10 13 9 8 6 5 4 3 3 4 5 5 6 4 5 5 10 8 5 6 7 6 4 4 4 7 9 13 17 20
24 30 32 29 25 23 23 20 16 14 15 13 12 11 13 11 7 6 5 4 3 3 3 4 4 7 8 7 7 9 9 6 7 7 7 6 6 6 9 11 14 19 21
19 25 30 30 29 25 23 21 18 15 13 12 11 10 9 8 7 7 5 4 3 2 2 3 4 5 7 8 8 10 10 8 9 8 8 9 8 7 9 13 16 19 20
15 20 29 30 27 27 25 21 20 17 14 11 11 12 13 12 13 9 6 5 3 3 2 3 4 3 4 6 8 11 10 9 8 11 11 9 9 8 10 14 16 19 18
14 16 23 29 28 29 27 25 22 19 15 12 10 13 15 13 14 10 8 8 4 3 3 3 3 2 3 5 9 11 9 10 11 14 12 10 9 10 11 14 16 17 17
17 16 18 28 31 31 31 28 23 20 16 12 10 12 15 14 13 12 11 8 5 5 6 5 5 4 4 5 7 9 9 8 13 17 14 12 11 13 13 14 16 17 16
22 19 17 19 27 31 30 28 26 22 20 15 11 10 13 13 13 14 11 10 6 9 9 8 6 6 6 7 6 6 9 11 13 17 15 13 11 14 14 15 16 16 14
25 21 16 17 22 29 30 29 25 23 21 18 14 12 12 14 14 14 14 15 12 12 12 10 8 7 7 6 7 8 7 9 11 13 16 15 15 16 15 17 17 16 15
20 26 22 15 20 24 27 26 24 22 20 20 18 13 11 13 15 17 15 13 14 13 13 13 12 11 9 8 8 8 8 8 8 11 14 17 16 16 17 17 18 17 16
18 22 28 23 19 23 23 23 25 24 22 22 20 18 16 14 15 18 18 15 14 16 17 17 16 15 13 11 10 9 8 8 7 8 11 14 16 17 18 18 19 18 18
18 22 25 29 28 24 25 26 25 24 24 22 22 21 17 17 17 19 19 18 16 16 15 16 18 18 17 14 12 11 10 9 9 9 9 12 15 17 19 20 20 20 20
12 21 24 26 28 29 27 29 31 28 28 27 26 24 22 21 19 19 20 21 20 19 18 17 17 19 20 18 16 15 14 13 12 11 10 11 13 14 18 20 21 22 22
6 14 21 28 28 29 26 27 30 31 31 32 32 30 26 23 21 20 21 22 24 23 22 21 18 19 20 21 20 19 17 17 16 15 14 14 13 14 16 19 22 23 23
3 6 10 20 24 31 30 28 31 31 32 33 35 34 32 30 29 28 26 24 25 27 26 25 25 23 23 22 21 21 21 21 21 20 19 17 17 17 18 19 19 22 23
6 8 9 14 15 19 28 34 33 31 32 31 32 33 33 33 33 34 33 31 30 29 30 30 29 29 28 25 22 22 22 23 24 23 23 23 22 21 21 21 22 23 24
6 11 10 16 20 20 18 25 28 34 32 30 29 28 31 32 35 36 37 37 35 33 32 31 32 32 31 29 26 25 27 27 27 26 26 27 26 26 26 26 26 25 26
10 10 11 13 13 17 21 25 26 29 34 43 32 28 30 34 36 41 39 37 36 36 34 33 33 33 33 32 31 30 31 32 31 31 30 29 29 29 29 29 30 30 30
21 18 15 12 12 13 15 21 28 27 29 37 41 32 27 31 35 46 40 36 37 36 35 35 35 35 34 33 33 34 36 37 35 34 33 33 32 30 29 32 32 32 31
30 29 26 23 19 16 14 18 22 25 29 39 38 25 30 26 32 42 44 38 38 36 36 36 36 35 34 34 34 36 38 40 38 37 37 36 34 32 32 34 34 35 31
38 38 36 34 32 28 23 17 17 19 23 28 31 37 36 29 32 37 41 41 40 39 38 37 36 35 34 33 33 35 38 39 39 39 39 38 36 35 34 33 36 35 32
40 43 45 43 43 39 35 31 24 20 22 22 25 29 33 32 30 34 36 40 40 40 41 40 38 34 31 29 28 30 34 34 38 39 38 37 37 37 38 37 36 35 36
42 45 50 51 47 49 47 41 37 33 28 25 18 20 23 20 24 28 32 41 40 40 40 41 40 38 34 29 28 27 29 32 34 35 36 35 35 37 40 41 39 39 41
45 50 51 52 55 51 54 53 48 43 39 35 29 24 18 15 18 19 25 33 37 41 40 42 41 40 37 35 33 30 29 31 33 31 32 32 34 35 37 40 42 43 43
37 43 50 53 53 56 55 57 57 54 48 44 43 38 31 25 19 18 19 23 24 33 37 40 40 37 36 33 30 31 31 31 28 28 31 35 36 35 34 35 38 39 40
34 38 43 49 52 53 58 57 58 60 59 53 47 49 43 36 28 26 24 23 25 24 29 36 41 38 36 33 32 31 32 33 34 35 32 30 30 32 33 33 34 35 37
Wind_Direction
186 194 193 196 188 164 165 168 172 180 181 181 172 169 180 177 173 169 169 152 134 144 141 149 163 165 253 154 164 168 157 175 167 141 136 114 98 99 116 124 124 125 123
189 195 195 195 188 175 167 166 170 172 173 171 173 181 179 179 194 179 171 185 165 139 141 145 171 182 200 184 153 152 144 149 150 125 124 107 91 114 122 124 127 128 126
198 195 196 197 184 180 174 167 164 165 168 175 182 183 186 185 182 181 170 185 174 182 149 140 161 175 185 191 199 186 172 157 145 146 133 110 105 121 128 131 135 132 128
199 207 200 198 195 182 172 165 163 162 178 184 188 192 191 186 187 210 192 186 181 183 148 140 166 167 167 177 180 161 177 154 145 150 141 125 119 124 128 138 140 136 135
217 210 210 204 198 186 179 172 165 164 172 182 193 194 189 191 198 219 225 207 190 201 177 148 130 153 152 178 188 170 156 189 172 171 154 133 125 128 137 142 145 143 143
241 221 209 207 205 199 194 184 176 171 170 181 194 195 192 199 202 211 226 229 209 238 211 200 178 104 167 172 190 198 196 202 197 178 166 153 134 141 146 150 152 153 154
239 240 219 202 200 201 200 198 189 185 179 181 192 195 194 203 203 211 224 222 224 234 219 199 181 173 162 152 166 177 179 184 182 182 179 176 166 158 156 161 165 164 163
231 235 228 209 209 203 203 201 197 193 192 189 191 204 203 201 211 210 211 216 227 240 233 220 199 188 177 173 166 159 183 179 184 193 190 188 176 171 170 175 177 175 174
215 217 229 212 203 209 202 199 200 203 207 198 198 210 214 212 212 220 219 223 224 238 239 237 224 215 193 181 172 185 183 184 191 195 201 201 190 188 186 187 189 188 189
207 214 219 218 209 204 207 204 198 201 201 206 201 210 221 222 216 221 221 219 220 225 239 241 241 227 215 199 187 187 183 191 191 201 203 205 203 200 200 201 202 200 204
209 213 219 220 220 214 207 209 213 214 218 216 214 211 217 222 225 222 223 220 222 232 236 245 239 234 224 214 207 202 187 189 199 203 203 208 207 207 209 211 214 215 218
209 208 214 215 220 218 219 214 214 213 224 221 230 218 216 223 225 226 228 227 221 230 240 247 236 233 228 222 222 220 213 210 210 217 216 216 213 215 218 219 221 224 225
205 201 214 216 208 212 220 222 219 216 222 225 220 219 211 217 224 227 228 230 228 224 233 242 241 236 235 232 231 230 228 225 223 223 223 227 223 224 225 228 231 232 233
231 215 210 214 209 210 211 215 219 219 220 223 222 219 218 216 224 232 235 232 232 229 227 231 235 236 239 238 237 238 239 236 233 232 227 233 232 232 234 234 234 235 238
225 238 228 222 220 211 214 220 219 220 215 220 226 227 220 222 226 229 234 235 233 232 229 229 231 233 236 239 241 244 241 242 238 236 235 234 240 240 239 238 238 238 240
200 219 237 233 230 231 224 217 221 226 225 225 226 231 233 233 232 227 228 232 233 231 230 229 231 233 234 234 240 247 246 243 244 244 242 240 241 245 247 246 243 244 246
213 213 217 220 231 244 243 246 234 223 221 233 237 225 229 236 237 235 233 229 230 230 230 229 231 234 237 237 234 238 245 247 248 249 248 248 247 247 249 251 252 252 254
230 222 220 230 234 227 229 241 257 237 227 230 229 237 239 251 236 233 234 235 235 234 233 232 233 234 234 237 237 237 240 243 245 247 249 250 250 251 254 255 256 258 260
239 233 228 223 231 241 248 240 234 250 226 214 231 243 250 250 235 225 228 235 235 236 238 240 239 239 238 237 238 238 241 242 243 246 249 250 251 253 256 260 261 260 261
252 244 239 232 232 233 227 239 247 254 250 237 238 250 253 250 233 221 221 228 233 237 239 242 244 243 242 241 239 240 242 244 243 243 247 251 252 252 254 257 262 264 264
259 257 246 243 241 241 237 223 233 232 221 237 232 248 256 243 237 226 225 227 232 235 238 240 244 244 242 243 244 244 246 248 248 245 245 249 252 255 255 256 260 264 266
262 262 259 248 246 245 243 238 229 234 244 211 216 229 237 243 244 236 224 223 227 233 240 241 244 245 245 247 248 249 253 253 251 250 248 248 248 249 252 254 256 259 259
263 262 260 258 251 248 248 243 238 234 235 239 225 227 246 247 247 247 239 226 227 230 233 239 243 245 243 243 250 251 251 252 253 254 253 250 249 248 246 250 253 253 255
266 261 260 259 256 250 249 247 245 240 237 235 232 228 223 228 249 246 241 242 233 226 231 233 239 241 242 242 244 250 253 252 252 252 253 250 248 246 247 248 249 251 256
275 264 260 258 256 253 247 248 245 245 240 237 236 238 235 236 233 248 253 243 241 234 229 228 231 233 237 241 244 248 251 253 254 252 249 248 248 249 249 249 252 255 258
288 272 262 258 257 254 250 245 244 244 244 239 235 241 238 239 235 239 249 252 249 250 237 227 229 229 234 234 235 238 244 248 252 254 255 255 254 255 254 255 257 258 260
Height
3192 3196 3200 3203 3205 3207 3210 3213 3217 3220 3222 3226 3228 3231 3234 3236 3238 3239 3240 3240 3241 3242 3243 3243 3244 3245 3247 3248 3250 3251 3253 3254 3255 3256 3257 3257 3257 3258 3258 3258 3258 3259 3259
3189 3193 3197 3201 3203 3207 3210 3212 3216 3220 3222 3226 3228 3230 3233 3236 3238 3240 3241 3241 3241 3241 3243 3244 3245 3246 3247 3249 3250 3252 3253 3255 3256 3257 3258 3258 3260 3259 3260 3261 3261 3262 3263
3187 3190 3195 3198 3202 3205 3208 3212 3217 3220 3223 3225 3228 3230 3233 3235 3238 3241 3241 3242 3241 3242 3243 3244 3246 3247 3248 3249 3250 3252 3253 3255 3257 3258 3259 3260 3260 3260 3261 3262 3264 3265 3267
3185 3190 3193 3196 3200 3204 3208 3212 3216 3219 3222 3225 3228 3230 3233 3236 3238 3240 3242 3242 3242 3242 3242 3244 3245 3246 3247 3248 3250 3252 3253 3255 3257 3258 3259 3260 3261 3262 3263 3264 3266 3268 3269
3183 3185 3189 3194 3199 3203 3206 3210 3214 3217 3221 3224 3227 3229 3231 3234 3236 3239 3241 3243 3243 3243 3244 3245 3245 3246 3246 3247 3250 3252 3254 3255 3257 3258 3260 3261 3262 3263 3265 3266 3268 3270 3271
3178 3183 3187 3192 3197 3202 3205 3208 3211 3215 3219 3222 3226 3228 3230 3233 3236 3238 3241 3243 3243 3244 3245 3245 3246 3246 3246 3247 3248 3251 3253 3255 3256 3258 3260 3262 3263 3264 3266 3268 3270 3271 3273
3174 3177 3182 3186 3193 3197 3201 3206 3210 3213 3217 3221 3224 3228 3229 3233 3235 3238 3240 3242 3243 3244 3245 3245 3246 3246 3247 3247 3248 3249 3251 3253 3255 3257 3260 3261 3263 3265 3266 3269 3270 3272 3274
3172 3176 3180 3185 3190 3194 3199 3203 3208 3212 3215 3218 3222 3226 3228 3230 3234 3236 3239 3241 3243 3244 3244 3245 3246 3246 3247 3247 3248 3249 3251 3253 3254 3257 3258 3260 3263 3265 3266 3269 3271 3273 3274
3168 3173 3178 3182 3187 3192 3196 3200 3205 3209 3214 3217 3220 3223 3225 3228 3231 3234 3236 3239 3241 3243 3244 3245 3245 3246 3247 3247 3248 3249 3251 3252 3254 3255 3257 3259 3261 3263 3265 3268 3270 3272 3274
3164 3170 3175 3180 3185 3190 3195 3198 3202 3206 3211 3215 3217 3220 3222 3225 3228 3231 3234 3236 3239 3240 3243 3244 3245 3246 3247 3248 3248 3250 3251 3252 3253 3254 3256 3258 3260 3262 3264 3267 3269 3271 3273
3162 3166 3170 3177 3182 3187 3191 3195 3198 3202 3206 3210 3214 3216 3219 3221 3225 3228 3231 3233 3235 3238 3241 3242 3243 3245 3246 3247 3248 3249 3250 3251 3252 3254 3255 3257 3258 3260 3263 3265 3268 3270 3271
3158 3160 3164 3169 3176 3182 3186 3191 3195 3198 3202 3206 3210 3213 3215 3217 3220 3224 3227 3229 3232 3235 3238 3239 3240 3242 3244 3246 3247 3248 3249 3250 3251 3253 3254 3255 3257 3259 3261 3263 3265 3267 3269
3155 3157 3161 3164 3168 3172 3178 3183 3188 3192 3196 3199 3204 3207 3209 3212 3215 3219 3223 3225 3228 3230 3233 3237 3239 3240 3242 3243 3245 3246 3247 3248 3250 3251 3253 3254 3255 3256 3258 3260 3262 3264 3266
3153 3154 3156 3160 3163 3168 3172 3176 3181 3184 3189 3193 3197 3200 3203 3207 3211 3214 3217 3220 3223 3226 3228 3231 3235 3237 3238 3239 3241 3243 3245 3246 3247 3248 3250 3251 3253 3254 3255 3256 3258 3260 3261
3152 3153 3154 3155 3157 3161 3167 3170 3175 3180 3183 3187 3191 3195 3198 3201 3204 3207 3211 3215 3217 3220 3223 3225 3228 3231 3234 3236 3238 3239 3241 3242 3244 3245 3246 3247 3249 3251 3252 3253 3255 3256 3257
3152 3152 3152 3153 3155 3157 3159 3162 3167 3172 3178 3182 3187 3190 3192 3195 3198 3200 3204 3207 3210 3213 3215 3218 3222 3225 3227 3230 3233 3235 3236 3238 3240 3241 3243 3243 3244 3246 3248 3249 3250 3251 3252
3150 3151 3151 3151 3152 3154 3155 3157 3159 3164 3169 3173 3180 3182 3186 3189 3191 3194 3196 3199 3202 3205 3207 3210 3214 3217 3221 3224 3227 3230 3232 3233 3235 3237 3238 3239 3240 3241 3242 3244 3245 3247 3248
3148 3148 3148 3148 3149 3149 3150 3153 3155 3156 3159 3164 3170 3174 3177 3179 3181 3184 3188 3193 3195 3197 3200 3203 3205 3208 3212 3217 3220 3223 3224 3226 3229 3230 3232 3233 3235 3236 3237 3238 3239 3241 3242
3143 3144 3145 3146 3145 3145 3146 3147 3149 3152 3156 3161 3163 3166 3169 3168 3169 3174 3180 3185 3187 3190 3193 3196 3198 3200 3204 3208 3212 3214 3216 3217 3220 3223 3225 3226 3228 3230 3231 3231 3233 3234 3236
3136 3138 3140 3141 3142 3142 3142 3143 3145 3146 3149 3151 3153 3156 3160 3162 3162 3166 3170 3174 3177 3181 3184 3186 3190 3192 3196 3199 3202 3204 3206 3207 3211 3214 3217 3219 3221 3223 3224 3224 3225 3225 3230
3126 3128 3132 3133 3134 3135 3137 3138 3140 3139 3140 3142 3143 3147 3151 3153 3157 3160 3162 3164 3168 3171 3175 3177 3181 3184 3187 3190 3193 3195 3196 3199 3203 3204 3207 3210 3214 3216 3217 3217 3217 3219 3223
3114 3116 3117 3123 3125 3125 3127 3130 3133 3133 3134 3134 3136 3140 3142 3144 3147 3151 3152 3155 3158 3161 3166 3169 3172 3175 3179 3181 3184 3187 3188 3191 3191 3195 3197 3201 3205 3208 3208 3208 3209 3211 3212
3103 3103 3104 3106 3114 3115 3116 3119 3122 3124 3127 3128 3130 3132 3135 3136 3138 3140 3143 3146 3148 3151 3155 3159 3163 3167 3170 3172 3175 3177 3179 3181 3182 3185 3188 3191 3194 3196 3197 3197 3199 3200 3200
3088 3088 3089 3091 3095 3102 3104 3106 3109 3112 3115 3120 3123 3126 3128 3128 3130 3130 3133 3137 3139 3142 3145 3148 3153 3157 3160 3162 3165 3168 3170 3172 3173 3177 3179 3181 3182 3185 3186 3188 3189 3189 3190
3074 3074 3073 3074 3079 3082 3088 3090 3096 3098 3102 3106 3111 3115 3117 3119 3120 3122 3125 3127 3131 3133 3135 3139 3143 3147 3150 3154 3157 3160 3162 3164 3166 3167 3168 3170 3172 3174 3176 3177 3178 3180 3181
3062 3060 3058 3058 3061 3065 3067 3074 3078 3082 3086 3092 3097 3102 3105 3108 3111 3115 3119 3121 3122 3124 3126 3129 3133 3138 3141 3144 3145 3148 3152 3155 3157 3156 3160 3162 3163 3165 3166 3168 3170 3171 3172